{"data":{"norad_id":68200,"intl_designator":"2026-052C","name":"2026-052C","alt_names":[],"object_type":"PAYLOAD","status":"ACTIVE","operator":null,"country":"PRC","launch_date":"2026-03-16","launch_site_code":"JSC","launch_vehicle":null,"mission":null,"orbit_class":"UNKNOWN","rcs_meters":null,"size_class":null,"mass_kg":null,"dimensions":null,"purposes":[],"wikipedia_slug":null,"has_3d_model":false,"image_url":null,"decayed_at":null,"tle_current":{"epoch":"2026-05-17T02:19:33.161376Z","epoch_age_seconds":761844,"freshness":"AGED","line1":"1 68200U 26052C   26137.09691159  .00000172  00000+0  14247-4 0  9991","line2":"2 68200  97.5355 212.3712 0010179  59.0821 301.1408 15.10614538  9340","mean_motion":15.10614538,"eccentricity":0.0010179,"inclination_deg":97.5355,"raan_deg":212.3712,"arg_perigee_deg":59.0821,"mean_anomaly_deg":301.1408,"bstar":1.4247e-5,"rev_number":934,"period_min":95.325442975447,"perigee_km":527.28845194889,"apogee_km":541.36084136916,"semimajor_km":6912.461646659,"source":"CELESTRAK","updated_at":"2026-05-25T13:38:07.619736Z"}}}